CW9849 Weather Reports


Display with metric or nautical units.
time (UTC)temp
F
wind
direction
speed
MPH
gust
MPH
rain 1hr
in
rain 24hr
in
rain mn
in
humidity
%
barometer
mb
20260505221504 50 355 10.0 17.0 0.00 0.00 0.00 78 1016.9
20260505220011 50 352 12.0 19.0 0.00 0.00 0.00 78 1016.8
20260505214503 50 354 8.0 16.0 0.00 0.00 0.00 78 1016.8
20260505213105 50 339 9.0 17.0 0.00 0.00 0.00 78 1017.0
20260505213001 50 313 9.0 17.0 0.00 0.00 0.00 78 1016.9
20260505211604 50 4 11.0 17.0 0.00 0.00 0.00 78 1017.1
20260505211502 50 344 10.0 17.0 0.00 0.00 0.00 79 1017.1
20260505210059 50 13 10.0 17.0 0.00 0.00 0.00 79 1017.1
20260505204600 50 344 10.0 17.0 0.00 0.00 0.00 79 1016.9
20260505203056 50 8 9.0 18.0 0.00 0.00 0.00 79 1016.9
20260505201554 51 354 10.0 16.0 0.00 0.00 0.00 79 1016.9
20260505200053 51 358 8.0 16.0 0.00 0.00 0.00 78 1016.7
20260505194552 51 349 9.0 17.0 0.00 0.00 0.00 78 1016.5
20260505193056 51 343 12.0 18.0 0.00 0.00 0.00 78 1016.6
20260505191556 51 1 11.0 18.0 0.00 0.00 0.00 77 1016.5
20260505190047 51 354 12.0 20.0 0.00 0.00 0.00 77 1016.6
20260505184545 52 21 11.0 18.0 0.00 0.00 0.00 76 1016.5
20260505183045 52 18 10.0 18.0 0.00 0.00 0.00 75 1016.6
20260505181544 53 15 9.0 17.0 0.00 0.00 0.00 75 1016.6
20260505180051 53 339 8.0 17.0 0.00 0.00 0.00 74 1016.6
20260505174555 55 339 9.0 16.0 0.00 0.00 0.00 73 1016.5
20260505173038 56 8 10.0 18.0 0.00 0.00 0.00 74 1016.6
20260505171537 57 336 13.0 18.0 0.00 0.00 0.00 73 1016.5
20260505170039 57 11 12.0 17.0 0.00 0.00 0.00 74 1016.6
20260505164539 57 18 8.0 16.0 0.00 0.00 0.00 73 1016.7
20260505163039 58 354 9.0 17.0 0.00 0.00 0.00 73 1016.7
20260505161534 58 349 9.0 17.0 0.00 0.00 0.00 73 1016.8
20260505153040 59 11 9.0 16.0 0.00 0.00 0.00 73 1016.9
20260505151534 59 53 10.0 17.0 0.00 0.00 0.00 72 1016.8
20260505130118 58 32 12.0 21.0 0.00 0.00 0.00 76 1016.7
20260505124518 58 41 14.0 18.0 0.00 0.00 0.00 77 1016.7
20260505123016 58 49 12.0 21.0 0.00 0.00 0.00 78 1016.7
20260505121516 58 28 14.0 21.0 0.00 0.00 0.00 79 1016.5
20260505120013 58 46 13.0 21.0 0.00 0.00 0.00 80 1016.4
20260505114514 57 46 12.0 20.0 0.00 0.00 0.00 80 1016.4
20260505113010 57 46 11.0 19.0 0.00 0.00 0.00 80 1016.4
20260505111509 57 49 11.0 19.0 0.00 0.00 0.00 80 1016.3
20260505101503 55 63 15.0 24.0 0.00 0.00 0.00 81 1016.5
20260505100058 55 37 15.0 24.0 0.00 0.00 0.00 83 1016.4
20260505094555 54 34 14.0 24.0 0.00 0.00 0.00 85 1016.5
20260505093053 54 34 14.0 24.0 0.00 0.00 0.00 86 1016.3
20260505091551 54 47 14.0 23.0 0.00 0.00 0.00 87 1016.2
20260505090054 54 41 13.0 23.0 0.00 0.00 0.00 87 1016.2
20260505084551 54 49 17.0 23.0 0.00 0.00 0.00 87 1016.2
20260505083100 54 11 16.0 22.0 0.00 0.00 0.00 88 1016.1
20260505081548 53 46 13.0 21.0 0.00 0.00 0.00 88 1016.0
20260505080042 53 52 14.0 19.0 0.00 0.00 0.00 88 1016.1
20260505074543 53 37 12.0 20.0 0.00 0.00 0.00 89 1016.0
20260505073038 53 27 11.0 17.0 0.00 0.00 0.00 88 1015.9
20260505071540 52 21 12.0 18.0 0.00 0.00 0.00 88 1015.9
20260505070045 53 18 9.0 16.0 0.00 0.00 0.00 89 1015.8
20260505064551 53 14 10.0 17.0 0.00 0.00 0.00 89 1015.8
20260505063033 52 25 9.0 19.0 0.00 0.00 0.00 89 1015.6
20260505061538 52 14 11.0 17.0 0.00 0.00 0.00 89 1015.6
20260505060030 52 41 10.0 17.0 0.00 0.00 0.00 89 1015.6
20260505054526 51 33 10.0 17.0 0.00 0.02 0.00 89 1015.5
20260505053023 51 27 10.0 17.0 0.00 0.02 0.00 89 1015.6
20260505051521 51 13 8.0 14.0 0.00 0.02 0.00 89 1015.5
20260505041525 51 15 7.0 13.0 0.00 0.02 0.00 89 1015.5
20260505040015 51 37 7.0 14.0 0.00 0.02 0.00 89 1015.6
20260505034513 51 30 7.0 15.0 0.00 0.02 0.00 89 1015.6
20260505033015 51 40 7.0 14.0 0.00 0.02 0.00 88 1015.5
20260505031510 51 71 6.0 14.0 0.00 0.02 0.00 88 1015.7
20260505030008 51 20 5.0 10.0 0.00 0.02 0.00 88 1015.7
20260505024524 51 37 6.0 12.0 0.00 0.02 0.00 88 1015.7
20260505023006 51 14 7.0 12.0 0.00 0.02 0.00 88 1015.7
20260505021506 52 21 7.0 12.0 0.00 0.02 0.00 88 1015.8
20260505020004 52 23 5.0 10.0 0.00 0.02 0.00 88 1015.8
20260505014502 52 44 4.0 10.0 0.00 0.02 0.00 88 1016.0
20260505013102 52 37 7.0 12.0 0.00 0.02 0.00 88 1016.0
20260505011559 53 15 6.0 13.0 0.00 0.02 0.00 88 1016.3
20260505010056 52 23 5.0 13.0 0.00 0.02 0.00 88 1016.4
20260505004555 52 25 6.0 10.0 0.00 0.02 0.00 88 1016.4
20260505003056 52 13 6.0 11.0 0.00 0.02 0.00 88 1016.4
20260505001555 52 30 4.0 9.0 0.00 0.02 0.00 88 1016.5
20260505000056 52 40 5.0 12.0 0.00 0.02 0.00 87 1016.6
20260504234612 52 39 6.0 11.0 0.00 0.02 0.00 87 1016.7
20260504233050 52 34 8.0 13.0 0.00 0.02 0.00 87 1016.7
20260504231559 52 37 9.0 16.0 0.00 0.02 0.00 87 1016.7
20260504230045 52 35 8.0 15.0 0.00 0.02 0.00 87 1016.6
20260504224543 52 39 8.0 11.0 0.00 0.02 0.02 87 1016.8
20260504223043 52 20 7.0 13.0 0.00 0.02 0.02 87 1016.8